This demonstration page uses our WeatherBlox Daily Observations layout. Learn more.

Left ArrowRight Arrow

53.62937, 11.41316

Hourly Observations for September 21, 2021

Temp ( °F °C ) Dew Point ( °F °C ) Humidity (%) Winds ( mph kmh ) Pressure ( in mb ) Visibility ( mi km ) Precip ( " mm )
5:50 am 05:50 Mostly Clear 48 9 46 8 94 94 VRB 1 2 30.30 1026 7 11 N/A
6:20 am 06:20 Mostly Clear 48 9 46 8 94 94 VRB 1 2 30.30 1026 7 11 N/A
6:50 am 06:50 Mostly Cloudy 48 9 46 8 94 94 VRB 1 2 30.30 1026 30 48 N/A
7:20 am 07:20 Mostly Cloudy 48 9 46 8 94 94 VRB 2 4 30.30 1026 30 48 N/A
7:50 am 07:50 Mostly Cloudy 48 9 46 8 94 94 SW 5 7 30.30 1026 30 48 N/A
8:20 am 08:20 Mostly Cloudy 50 10 46 8 88 88 SW 5 7 30.33 1027 30 48 N/A
8:50 am 08:50 Mostly Cloudy 50 10 46 8 88 88 SW 5 7 30.33 1027 30 48 N/A
9:20 am 09:20 Mostly Cloudy 52 11 48 9 88 88 SW 5 7 30.33 1027 30 48 N/A
9:50 am 09:50 Partly Cloudy 54 12 46 8 77 77 SW 7 11 30.33 1027 30 48 N/A
10:20 am 10:20 Mostly Cloudy 54 12 46 8 77 77 SW 6 9 30.33 1027 30 48 N/A
10:50 am 10:50 Mostly Cloudy with Drizzle 52 11 50 10 94 94 SSW 8 13 30.33 1027 3 5 N/A
11:20 am 11:20 Partly Cloudy with Drizzle 52 11 52 11 100 100 SSW 8 13 30.33 1027 3 5 N/A
11:50 am 11:50 Partly Cloudy 52 11 52 11 100 100 S 7 11 30.33 1027 5 8 N/A
12:20 pm 12:20 Partly Cloudy 54 12 52 11 94 94 S 9 15 30.33 1027 30 48 N/A
12:50 pm 12:50 Partly Cloudy 55 13 52 11 88 88 S 8 13 30.33 1027 30 48 N/A
1:20 pm 13:20 Partly Cloudy with Light Rain 57 14 52 11 82 82 S 8 13 30.33 1027 30 48 N/A
1:50 pm 13:50 Mostly Cloudy with Drizzle 55 13 52 11 88 88 SW 8 13 30.33 1027 3 5 N/A
2:20 pm 14:20 Partly Cloudy 55 13 54 12 94 94 SSW 8 13 30.30 1026 30 48 N/A
2:50 pm 14:50 Mostly Sunny 55 13 54 12 94 94 SSW 10 17 30.30 1026 30 48 N/A
3:20 pm 15:20 Mostly Sunny 57 14 54 12 88 88 S 9 15 30.30 1026 30 48 N/A
3:50 pm 15:50 Mostly Sunny 59 15 54 12 82 82 SSW 10 17 30.30 1026 7 11 N/A
4:20 pm 16:20 Mostly Sunny 61 16 54 12 77 77 SW 12 19 30.27 1025 30 48 N/A
4:50 pm 16:50 Mostly Sunny 61 16 54 12 77 77 SW 13 20 30.27 1025 30 48 N/A
5:20 pm 17:20 Partly Cloudy with Light Rain 61 16 54 12 77 77 SW 13 20 30.27 1025 30 48 N/A
5:50 pm 17:50 Mostly Cloudy with Light Rain 57 14 55 13 94 94 SW 10 17 30.27 1025 4 6 N/A
6:20 pm 18:20 Partly Cloudy with Light Rain 57 14 57 14 100 100 SW 8 13 30.27 1025 30 48 N/A
6:50 pm 18:50 Mostly Cloudy 57 14 57 14 100 100 VRB 2 4 30.27 1025 30 48 N/A
7:20 pm 19:20 Partly Cloudy 57 14 57 14 100 100 SW 5 7 30.27 1025 30 48 N/A
7:50 pm 19:50 Mostly Cloudy 57 14 57 14 100 100 SW 5 7 30.27 1025 30 48 N/A
8:20 pm 20:20 Partly Cloudy 57 14 57 14 100 100 WSW 5 7 30.30 1026 30 48 N/A
8:50 pm 20:50 Partly Cloudy 57 14 57 14 100 100 SW 5 7 30.30 1026 30 48 N/A
9:20 pm 21:20 Mostly Clear 57 14 55 13 94 94 WSW 6 9 30.30 1026 7 11 N/A
9:50 pm 21:50 Mostly Clear 55 13 55 13 100 100 WSW 5 7 30.30 1026 7 11 N/A

Powered by AerisWeather